DW4714 Weather Reports


time (UTC)temp
C
wind
direction
speed
KPH
gust
KPH
rain 1hr
cm
rain 24hr
cm
rain mn
cm
humidity
%
barometer
mb
20260504081717 1 0.0 0.0 0.00 0.00 0.00 65 1009.8
20260504080737 1 0.0 0.0 0.00 0.00 0.00 64 1009.8
20260504050717 2 0.0 0.0 0.00 0.00 0.00 61 1009.3
20260504045717 3 0.0 0.0 0.00 0.00 0.00 61 1009.4
20260504044717 3 0.0 0.0 0.00 0.00 0.00 60 1009.3
20260504043717 3 0.0 0.0 0.00 0.00 0.00 60 1009.4
20260504042717 3 0.0 0.0 0.00 0.00 0.00 59 1009.3
20260504041717 3 0.0 0.0 0.00 0.00 0.00 57 1009.1
20260504040717 3 0.0 0.0 0.00 0.00 0.00 57 1009.1
20260504035717 3 0.0 0.0 0.00 0.00 0.00 57 1009.0
20260504034717 4 0.0 0.0 0.00 0.00 0.00 56 1008.8
20260504033737 4 0.0 0.0 0.00 0.00 0.00 55 1008.7
20260504032737 4 0.0 0.0 0.00 0.00 0.00 55 1008.7
20260504031717 5 0.0 0.0 0.00 0.00 0.00 54 1008.6
20260504030717 5 0.0 0.0 0.00 0.00 0.00 53 1008.6
20260504025717 5 0.0 0.0 0.00 0.00 0.00 53 1008.6
20260504024717 5 0.0 0.0 0.00 0.00 0.00 52 1008.7
20260504023716 5 0.0 0.0 0.00 0.00 0.00 51 1008.6
20260504022717 6 0.0 0.0 0.00 0.00 0.00 50 1008.7
20260504021717 6 0.0 0.0 0.00 0.00 0.00 49 1008.7
20260504020717 6 0.0 0.0 0.00 0.00 0.00 48 1008.7
20260504015757 7 0.0 0.0 0.00 0.00 0.00 47 1008.6
20260504014717 7 0.0 0.0 0.00 0.00 0.00 45 1008.5
20260504013717 8 0.0 0.0 0.00 0.00 0.00 44 1008.5
20260504012717 8 0.0 0.0 0.00 0.00 0.00 43 1008.3
20260504011717 8 0.0 0.0 0.00 0.00 0.00 41 1008.3
20260504010717 9 0.0 0.0 0.00 0.00 0.00 40 1008.3
20260504005717 10 0.0 0.0 0.00 0.00 0.00 38 1008.1
20260504004757 10 0.0 0.0 0.00 0.00 0.00 36 1008.1
20260504003717 11 0.0 0.0 0.00 0.00 0.00 35 1007.9
20260504002717 12 0.0 0.0 0.00 0.00 0.00 33 1007.8
20260504001736 12 0.0 0.0 0.00 0.00 0.00 31 1007.8
20260504000717 13 0.0 0.0 0.00 0.00 0.00 28 1007.6
20260503235717 13 0.0 0.0 0.00 0.00 0.00 25 1007.6
20260503234737 13 0.0 0.0 0.00 0.00 0.00 25 1007.5
20260503233737 13 0.0 0.0 0.00 0.00 0.00 23 1007.4
20260503232717 14 0.0 0.0 0.00 0.00 0.00 22 1007.3
20260503231717 14 0.0 0.0 0.00 0.00 0.00 23 1007.2
20260503230717 14 0.0 0.0 0.00 0.00 0.00 20 1007.2
20260503225717 15 0.0 0.0 0.00 0.00 0.00 20 1007.2
20260503224717 15 0.0 0.0 0.00 0.00 0.00 21 1007.1
20260503223717 15 0.0 0.0 0.00 0.00 0.00 20 1007.1
20260503222717 15 0.0 0.0 0.00 0.00 0.00 20 1007.3
20260503221716 15 0.0 0.0 0.00 0.00 0.00 19 1007.2
20260503220717 15 0.0 0.0 0.00 0.00 0.00 18 1007.3
20260503215717 15 0.0 0.0 0.00 0.00 0.00 18 1007.2
20260503214736 15 0.0 0.0 0.00 0.00 0.00 18 1007.1
20260503213716 15 0.0 0.0 0.00 0.00 0.00 17 1007.1
20260503212757 15 0.0 0.0 0.00 0.00 0.00 17 1006.9
20260503211716 15 0.0 0.0 0.00 0.00 0.00 16 1006.8
20260503210716 15 0.0 0.0 0.00 0.00 0.00 15 1006.8
20260503205716 15 0.0 0.0 0.00 0.00 0.00 17 1006.8
20260503204716 15 0.0 0.0 0.00 0.00 0.00 15 1006.8
20260503203716 15 0.0 0.0 0.00 0.00 0.00 16 1006.9
20260503202717 15 0.0 0.0 0.00 0.00 0.00 15 1007.0
20260503201717 16 0.0 0.0 0.00 0.00 0.00 15 1007.2
20260503200716 16 0.0 0.0 0.00 0.00 0.00 16 1007.3
20260503195716 16 0.0 0.0 0.00 0.00 0.00 18 1007.3
20260503194716 15 0.0 0.0 0.00 0.00 0.00 17 1007.4
20260503193736 15 0.0 0.0 0.00 0.00 0.00 16 1007.6
20260503192736 15 0.0 0.0 0.00 0.00 0.00 18 1007.6
20260503191716 15 0.0 0.0 0.00 0.00 0.00 18 1007.8
20260503190716 15 0.0 0.0 0.00 0.00 0.00 18 1008.0
20260503185718 15 0.0 0.0 0.00 0.00 0.00 17 1008.0
20260503184736 15 0.0 0.0 0.00 0.00 0.00 18 1008.1
20260503183716 15 0.0 0.0 0.00 0.00 0.00 18 1008.2
20260503182716 14 0.0 0.0 0.00 0.00 0.00 19 1008.1
20260503181716 13 0.0 0.0 0.00 0.00 0.00 20 1008.4
20260503180717 13 0.0 0.0 0.00 0.00 0.00 21 1008.2
20260503175716 13 0.0 0.0 0.00 0.00 0.00 19 1008.6
20260503174716 13 0.0 0.0 0.00 0.00 0.00 23 1008.4
20260503173716 13 0.0 0.0 0.00 0.00 0.00 19 1008.6
20260503172716 13 0.0 0.0 0.00 0.00 0.00 22 1008.9
20260503171716 12 0.0 0.0 0.00 0.00 0.00 26 1008.8
20260503170716 12 0.0 0.0 0.00 0.00 0.00 21 1008.9
20260503150716 8 0.0 0.0 0.00 0.03 0.00 33 1009.7
20260503130715 7 0.0 0.0 0.00 0.05 0.00 40 1010.0
20260503110737 5 0.0 0.0 0.00 0.05 0.00 49 1009.3